FW6023 Weather Reports


Display with metric or nautical units.
time (UTC)temp
F
wind
direction
speed
MPH
gust
MPH
rain 1hr
in
rain 24hr
in
rain mn
in
humidity
%
barometer
mb
20260505051538 54 175 2.0 5.0 0.00 0.00 0.00 84 1009.5
20260505041543 54 171 2.0 5.0 0.00 0.00 0.00 85 1009.1
20260505040043 54 171 1.0 4.0 0.00 0.00 0.00 85 1009.0
20260505034535 54 169 1.0 4.0 0.00 0.00 0.00 85 1008.8
20260505033047 54 161 1.0 3.0 0.00 0.00 0.00 84 1008.7
20260505031537 55 163 1.0 2.0 0.00 0.00 0.00 83 1008.6
20260505030047 55 163 0.0 4.0 0.00 0.00 0.00 82 1008.5
20260505024603 56 159 1.0 3.0 0.00 0.00 0.00 82 1008.5
20260505023042 56 153 1.0 3.0 0.00 0.00 0.00 80 1008.6
20260505021547 57 153 1.0 3.0 0.00 0.00 0.00 79 1008.6
20260505020048 58 153 1.0 3.0 0.00 0.00 0.00 77 1008.7
20260505014547 60 153 1.0 3.0 0.00 0.00 0.00 74 1008.8
20260505013043 61 157 1.0 3.0 0.00 0.00 0.00 74 1009.0
20260505011550 61 159 1.0 3.0 0.00 0.00 0.00 73 1009.0
20260505010040 62 161 0.0 2.0 0.00 0.00 0.00 71 1009.1
20260505004543 63 161 1.0 2.0 0.00 0.00 0.00 71 1009.0
20260505003037 63 162 0.0 3.0 0.00 0.00 0.00 70 1009.2
20260505001538 63 163 0.0 3.0 0.00 0.00 0.00 70 1009.2
20260505000039 63 162 1.0 3.0 0.00 0.00 0.00 68 1009.3
20260504234541 65 161 1.0 3.0 0.00 0.00 0.00 65 1009.4
20260504233054 65 161 1.0 3.0 0.00 0.00 0.00 64 1009.3
20260504231538 66 151 1.0 3.0 0.00 0.00 0.00 63 1009.5
20260504230035 66 147 1.0 2.0 0.00 0.00 0.00 63 1009.5
20260504224536 65 140 1.0 3.0 0.00 0.00 0.00 65 1009.8
20260504223052 65 160 1.0 3.0 0.00 0.00 0.00 65 1009.7
20260504221546 65 159 1.0 3.0 0.00 0.00 0.00 65 1009.8
20260504220058 66 157 1.0 2.0 0.00 0.00 0.00 65 1009.8
20260504214544 67 161 1.0 3.0 0.00 0.00 0.00 66 1009.8
20260504213037 66 162 1.0 2.0 0.00 0.00 0.00 66 1009.9
20260504211536 63 162 1.0 2.0 0.00 0.00 0.00 67 1009.7
20260504210037 63 163 1.0 3.0 0.00 0.00 0.00 67 1009.8
20260504204557 62 159 1.0 4.0 0.00 0.00 0.00 69 1010.1
20260504203041 62 168 1.0 4.0 0.00 0.00 0.00 71 1010.2
20260504201538 62 180 1.0 3.0 0.00 0.00 0.00 68 1010.4
20260504200042 62 182 1.0 3.0 0.00 0.00 0.00 68 1010.3
20260504194541 64 173 1.0 2.0 0.00 0.00 0.00 67 1010.3
20260504193037 63 0 1.0 4.0 0.00 0.00 0.00 65 1010.3
20260504191542 63 161 0.0 3.0 0.00 0.00 0.00 71 1010.3
20260504190041 63 167 1.0 3.0 0.00 0.00 0.00 66 1010.4
20260504184539 63 167 1.0 3.0 0.00 0.00 0.00 67 1010.4
20260504183037 63 155 1.0 3.0 0.00 0.00 0.00 69 1010.2
20260504181543 63 0 1.0 3.0 0.00 0.00 0.00 68 1010.2
20260504180045 63 153 1.0 2.0 0.00 0.00 0.00 70 1010.4
20260504174540 62 151 1.0 2.0 0.00 0.00 0.00 71 1010.5
20260504173038 61 0 1.0 3.0 0.00 0.00 0.00 72 1010.5
20260504171538 59 149 0.0 2.0 0.00 0.00 0.00 75 1010.5
20260504081547 55 0 0.0 0.0 0.00 0.00 0.00 72 1008.8